Weather in Filonovskaya

Russia / Volgograd Oblast     50°34′54″N   42°43′51″E
temp.,
°C
wind,
m/s
gust,
m/s
humid.,
%
clouds,
%
prec.,
mm/h
press.,
hPa
HPBL,
m
5 august, thu
thu500:00+19nne336291 0.0 101733
03:00+18nne2262100 0.0 101717
06:00+18n22634 0.0 101863
09:00+24ne224599 0.0 1018615
12:00+28nnw123475 0.0 10172247
15:00+29sse12295 0.0 10162601
18:00+28se3333100 0.0 1015606
21:00+23ene3443100 0.0 101546
6 august, fri
fri600:00+21e36465 0.0 101682
03:00+20ese464830 0.0 1015101
06:00+20ese37515 0.0 1016143
09:00+27se56325 0.0 1015663
12:00+31se43255 0.0 10141975
15:00+33ese332335 0.0 10122733
18:00+31ese46255 0.0 1012548
21:00+25ese510315 0.0 1012149
7 august, sat
sat700:00+24ese615345 0.0 1013332
03:00+22se615365 0.0 1013343
06:00+22se6153663 0.0 1013357
09:00+28se6925100 0.0 1013743
12:00+32se6720100 0.0 10121848
15:00+34ese4517100 0.0 10112159
18:00+32ese3621100 0.0 1010182
21:00+26e4523100 0.0 101155
8 august, sun
sun800:00+24e482899 0.0 1011109
03:00+23ese4829100 0.0 1011112
06:00+23ese3732100 0.0 1012149
09:00+29se5725100 0.0 1012346
12:00+35se5719100 0.0 10111513
15:00+34nne1321100 0.0 10121273
18:00+30n81127100 0.0 1011370
21:00+29ne81427100 0.0 1011494
9 august, mon
mon900:00+29ne91527100 0.0 1010520
03:00+27nne7172998 0.0 1010659
06:00+25nne8164355 0.0 1010840
09:00+30ne9133373 0.0 10091311
12:00+35nne792145 0.0 10082274
15:00+36nne791948 0.0 10073168
18:00+34nnw9112547 0.0 10081771
21:00+28nnw6123834 0.0 1010461